Notices

What's New in latest Release from April 7th, 2021:

- Updated Glossary, including Speed of Maximum Gust, and Total Hourly Precipitation

- Updated national and regional climate services offices contacts and prices information

- Addition of station inventory lists for 1981-2010, 1971-2000, and 1961-1990 Normals.

If you haven't already, please take our survey and provide feedback about our website: https://eccc.sondage-survey.ca/f/LanguageSelection.aspx?s=442ca660-fcf1-47c0-95a9-59707d6fd709

Hourly Data Report for April 04, 2021

ALGONQUIN PARK EAST GATE
ONTARIO
Current Station Operator: ECCC - MSC

45°32'00.000" N
78°16'00.000" W
397.00 m
6080192
71581
TNK

Download Data

Hourly Data (April 2021)
Hourly Data Report for April 4, 2021
TIME
LST
Temp Definition
°C
Dew Point Definition
°C
Rel Hum Definition
%
Precip. Amount Definition
mm

Wind Dir Definition
10's deg

Wind Spd Definition
km/h
Visibility Definition
km
Stn Press Definition
kPa
Hmdx Definition


Wind Chill Definition


Weather Definition


00:00 -1.8 -5.9 74 0.0   0   97.18     LegendNANA
01:00 -2.1 -5.4 78 0.0   0   97.18     LegendNANA
02:00 -1.8 -4.7 81 0.0   0   97.17     LegendNANA
03:00 -1.6 -4.7 80 0.0   0   97.17     LegendNANA
04:00 -1.5 -4.5 80 0.0   0   97.16     LegendNANA
05:00 -1.3 -4.1 82 0.0   0   97.18     LegendNANA
06:00 -1.6 -4.3 82 0.0   0   97.22     LegendNANA
07:00 -0.6 -3.5 80 0.0   0   97.29     LegendNANA
08:00 3.2 -1.9 69 0.0 0 1   97.29     LegendNANA
09:00 6.9 -2.0 53 0.0 1 3   97.28     LegendNANA
10:00 9.4 -2.8 42 0.0 33 4   97.30     LegendNANA
11:00 9.9 -3.9 37 0.0 2 5   97.29     LegendNANA
12:00 12.1 -3.9 32 0.0 31 8   97.26     LegendNANA
13:00 12.4 -5.3 29 0.0 36 6   97.22     LegendNANA
14:00 13.1 -6.8 24 0.0 32 7   97.20     LegendNANA
15:00 12.5 -8.6 22 0.0 2 9   97.18     LegendNANA
16:00 12.2 -8.2 23 0.0 35 7   97.20     LegendNANA
17:00 11.9 -6.8 27 0.0 34 6   97.20     LegendNANA
18:00 10.3 -6.5 30 0.0 34 5   97.22     LegendNANA
19:00 4.5 -5.3 49 0.0 0 1   97.26     LegendNANA
20:00 1.2 -5.5 61 0.0   0   97.31     LegendNANA
21:00 -1.1 -5.9 70 0.0   0   97.34     LegendNANA
22:00 -2.2 -5.6 77 0.0 0 1   97.35   -3 LegendNANA
23:00 -2.9 -5.8 80 0.0   0   97.37     LegendNANA

Notes on Data Quality.

Legend

  • E = Estimated
  • M = Missing
  • NA = Not Available*
  • [empty] = Indicates an unobserved value
Date modified: